Charlevoix, MI

7:12 PM EST on February 19, 2017 (GMT -0500)
Charlevoix Municipal

Weather History for KCVX - July, 2013

Change the Weather History Date:

Tuesday, July 23, 2013

  Actual Average Record
Temperature  
Mean Temperature 68 °F -  
Max Temperature 76 °F 72 °F 89 °F (2001)
Min Temperature 59 °F 58 °F 53 °F (2007)
Cooling Degree Days 2    
Growing Degree Days 18 (Base 50)    
Moisture  
Dew Point 54 °F    
Average Humidity 71    
Maximum Humidity 94    
Minimum Humidity 57    
Precipitation  
Precipitation 0.00 in - - ()
Sea Level Pressure  
Sea Level Pressure 29.82 in    
Wind  
Wind Speed 12 mph (NW)    
Max Wind Speed 22 mph    
Max Gust Speed 28 mph    
Visibility 10 miles    
Events Rain    
Averages and records for this station are not official NWS values.
T = Trace of Precipitation, MM = Missing Value Source: NWS Daily Summary

Daily Weather History Graph

Daily Weather History Graph

Search for Another Location

Airport or City:

Trip Planner

Search our weather history database for the weather conditions in past years. The results will help you decide how hot, cold, wet, or windy it might be!

Date:

Astronomy

Jul. 23, 2013 Rise Set
Actual Time 6:15 AM EDT 9:18 PM EDT
Civil Twilight 5:40 AM EDT 9:53 PM EDT
Nautical Twilight 4:55 AM EDT 10:38 PM EDT
Astronomical Twilight 4:00 AM EDT 11:32 PM EDT
Moon 9:38 PM EDT (7/23) 7:29 AM EDT (7/23)
Length of Visible Light 16h 13m
Length of Day
15h 02m
Full, 99% of the Moon is Illuminated
Jul 23
Full
Jul 29
Last Quarter
Aug 6
New
Aug 14
First Quarter
Aug 20
Full

Hourly Weather History & Observations

Time (EDT) Temp. Dew Point Humidity Pressure Visibility Wind Dir Wind Speed Gust Speed Precip Events Conditions
12:14 AM 76.5 °F 63.1 °F 63% 29.67 in 10.0 mi SSW 12.7 mph 19.6 mph N/A   Scattered Clouds
12:34 AM 76.3 °F 63.0 °F 63% 29.67 in 10.0 mi SSW 10.4 mph 18.4 mph N/A   Scattered Clouds
12:54 AM 71.1 °F 66.2 °F 85% 29.68 in 4.0 mi WSW 4.6 mph 25.3 mph N/A Rain Rain
1:14 AM 72.1 °F 66.0 °F 81% 29.69 in 10.0 mi SW 3.5 mph - N/A   Overcast
1:34 AM 69.6 °F 66.0 °F 88% 29.68 in 10.0 mi SW 12.7 mph 24.2 mph N/A Rain Light Rain
1:54 AM 69.3 °F 64.4 °F 84% 29.69 in 10.0 mi SSW 5.8 mph - N/A   Mostly Cloudy
2:14 AM 68.9 °F 65.5 °F 89% 29.69 in 10.0 mi SSW 5.8 mph - N/A   Overcast
2:34 AM 69.1 °F 66.9 °F 93% 29.69 in 10.0 mi WSW 6.9 mph - N/A   Overcast
2:54 AM 69.1 °F 67.3 °F 94% 29.70 in 10.0 mi West 6.9 mph - N/A   Overcast
3:14 AM 68.4 °F 64.6 °F 88% 29.70 in 10.0 mi NW 8.1 mph - N/A   Overcast
3:34 AM 68.0 °F 61.7 °F 80% 29.70 in 10.0 mi NW 10.4 mph - N/A   Overcast
3:54 AM 68.0 °F 60.8 °F 78% 29.70 in 10.0 mi NW 6.9 mph - N/A   Overcast
4:14 AM 67.5 °F 61.2 °F 80% 29.71 in 10.0 mi NNW 8.1 mph - N/A   Overcast
4:34 AM 67.1 °F 60.8 °F 80% 29.71 in 10.0 mi NW 6.9 mph - N/A   Overcast
4:54 AM 66.6 °F 60.8 °F 82% 29.71 in 10.0 mi NW 6.9 mph - N/A   Mostly Cloudy
5:14 AM 66.7 °F 59.9 °F 79% 29.72 in 10.0 mi NW 10.4 mph - N/A   Overcast
5:34 AM 66.0 °F 58.1 °F 76% 29.73 in 10.0 mi NNW 11.5 mph 19.6 mph N/A   Scattered Clouds
5:54 AM 65.5 °F 57.4 °F 75% 29.73 in 10.0 mi NNW 12.7 mph 17.3 mph N/A   Mostly Cloudy
6:14 AM 65.3 °F 57.2 °F 75% 29.74 in 10.0 mi NNW 12.7 mph 18.4 mph N/A   Mostly Cloudy
6:34 AM 64.0 °F 56.3 °F 76% 29.74 in 10.0 mi NNW 11.5 mph 18.4 mph N/A   Scattered Clouds
6:54 AM 63.5 °F 55.9 °F 76% 29.75 in 10.0 mi NNW 10.4 mph - N/A   Clear
7:14 AM 63.0 °F 55.4 °F 76% 29.75 in 10.0 mi NNW 11.5 mph - N/A   Clear
7:34 AM 62.6 °F 55.9 °F 79% 29.75 in 10.0 mi NNW 12.7 mph 16.1 mph N/A   Clear
7:54 AM 63.0 °F 54.7 °F 74% 29.76 in 10.0 mi NNW 10.4 mph 19.6 mph N/A   Clear
8:14 AM 63.0 °F 54.3 °F 73% 29.75 in 10.0 mi NNW 13.8 mph 17.3 mph N/A   Scattered Clouds
8:35 AM 62.6 °F 54.1 °F 74% 29.76 in 10.0 mi NNW 9.2 mph 18.4 mph N/A   Scattered Clouds
8:54 AM 62.8 °F 52.7 °F 70% 29.76 in 10.0 mi NNW 16.1 mph 21.9 mph N/A   Scattered Clouds
9:14 AM 63.0 °F 53.4 °F 71% 29.77 in 10.0 mi NW 13.8 mph 20.7 mph N/A   Scattered Clouds
9:34 AM 63.0 °F 52.2 °F 68% 29.77 in 10.0 mi NNW 15.0 mph 21.9 mph N/A   Scattered Clouds
9:54 AM 63.3 °F 52.5 °F 68% 29.77 in 10.0 mi NW 12.7 mph 19.6 mph N/A   Scattered Clouds
10:14 AM 62.4 °F 52.5 °F 70% 29.79 in 10.0 mi NW 13.8 mph - N/A   Mostly Cloudy
10:34 AM 61.7 °F 53.1 °F 73% 29.78 in 10.0 mi NW 17.3 mph 26.5 mph N/A   Overcast
10:54 AM 62.8 °F 53.1 °F 71% 29.79 in 10.0 mi NW 16.1 mph 20.7 mph N/A   Mostly Cloudy
11:14 AM 62.6 °F 53.2 °F 71% 29.81 in 10.0 mi WNW 18.4 mph 25.3 mph N/A   Overcast
11:34 AM 62.8 °F 52.2 °F 68% 29.82 in 10.0 mi WNW 16.1 mph 23.0 mph N/A   Overcast
11:54 AM 60.8 °F 52.7 °F 75% 29.83 in 10.0 mi NW 16.1 mph 26.5 mph N/A   Overcast
12:14 PM 61.3 °F 52.5 °F 73% 29.84 in 10.0 mi NW 16.1 mph 23.0 mph N/A   Overcast
12:34 PM 63.0 °F 53.2 °F 71% 29.85 in 10.0 mi WNW 19.6 mph 26.5 mph N/A   Overcast
12:54 PM 61.2 °F 51.8 °F 71% 29.86 in 10.0 mi WNW 17.3 mph 25.3 mph N/A   Overcast
1:15 PM 60.8 °F 51.3 °F 71% 29.86 in 10.0 mi WNW 19.6 mph 24.2 mph N/A   Overcast
1:34 PM 61.2 °F 51.6 °F 71% 29.85 in 10.0 mi NW 16.1 mph 24.2 mph N/A   Overcast
1:54 PM 60.4 °F 51.8 °F 73% 29.85 in 10.0 mi WNW 17.3 mph 25.3 mph N/A   Overcast
2:15 PM 59.0 °F 50.7 °F 74% 29.87 in 10.0 mi WNW 18.4 mph 26.5 mph N/A   Overcast
2:34 PM 59.7 °F 50.9 °F 73% 29.87 in 10.0 mi NW 15.0 mph 25.3 mph N/A   Overcast
2:54 PM 60.4 °F 50.5 °F 70% 29.87 in 10.0 mi NW 12.7 mph 19.6 mph N/A   Overcast
3:14 PM 60.3 °F 50.7 °F 71% 29.88 in 10.0 mi NNW 15.0 mph 23.0 mph N/A   Overcast
3:34 PM 60.3 °F 49.3 °F 67% 29.89 in 10.0 mi NNW 17.3 mph 25.3 mph N/A   Overcast
3:54 PM 62.8 °F 50.2 °F 63% 29.89 in 10.0 mi NNW 17.3 mph 26.5 mph N/A   Overcast
4:14 PM 60.6 °F 49.6 °F 67% 29.89 in 10.0 mi NNW 17.3 mph 24.2 mph N/A   Overcast
4:34 PM 61.5 °F 48.9 °F 63% 29.90 in 10.0 mi NNW 18.4 mph 26.5 mph N/A   Overcast
4:54 PM 62.2 °F 49.3 °F 63% 29.90 in 10.0 mi NNW 18.4 mph 24.2 mph N/A   Overcast
5:14 PM 62.2 °F 50.0 °F 64% 29.90 in 10.0 mi NNW 21.9 mph 26.5 mph N/A   Overcast
5:34 PM 61.2 °F 48.9 °F 64% 29.91 in 10.0 mi North 18.4 mph 26.5 mph N/A   Mostly Cloudy
5:54 PM 61.7 °F 49.1 °F 63% 29.91 in 10.0 mi NNW 20.7 mph 27.6 mph N/A   Mostly Cloudy
6:14 PM 61.0 °F 49.8 °F 67% 29.92 in 10.0 mi NNW 16.1 mph 24.2 mph N/A   Mostly Cloudy
6:34 PM 61.5 °F 48.4 °F 62% 29.92 in 10.0 mi NNW 18.4 mph 26.5 mph N/A   Mostly Cloudy
6:54 PM 60.8 °F 46.9 °F 60% 29.93 in 10.0 mi NNW 18.4 mph 26.5 mph N/A   Mostly Cloudy
7:14 PM 61.0 °F 47.5 °F 61% 29.93 in 10.0 mi NNW 17.3 mph 25.3 mph N/A   Mostly Cloudy
7:34 PM 61.5 °F 48.0 °F 61% 29.94 in 10.0 mi NNW 15.0 mph 21.9 mph N/A   Scattered Clouds
7:54 PM 61.2 °F 46.8 °F 59% 29.95 in 10.0 mi North 15.0 mph 25.3 mph N/A   Scattered Clouds
8:14 PM 60.8 °F 46.0 °F 58% 29.95 in 10.0 mi NNW 15.0 mph 20.7 mph N/A   Scattered Clouds
8:34 PM 60.8 °F 45.7 °F 57% 29.95 in 10.0 mi NNW 11.5 mph 21.9 mph N/A   Scattered Clouds
8:54 PM 60.4 °F 46.2 °F 59% 29.95 in 10.0 mi NNW 11.5 mph 16.1 mph N/A   Scattered Clouds
9:14 PM 59.9 °F 46.0 °F 60% 29.95 in 10.0 mi North 12.7 mph 20.7 mph N/A   Scattered Clouds
9:34 PM 59.9 °F 46.0 °F 60% 29.96 in 10.0 mi NNW 11.5 mph 19.6 mph N/A   Scattered Clouds
9:54 PM 60.1 °F 45.9 °F 59% 29.96 in 10.0 mi North 12.7 mph 21.9 mph N/A   Scattered Clouds
10:14 PM 60.3 °F 46.8 °F 61% 29.97 in 10.0 mi NNW 12.7 mph - N/A   Scattered Clouds
10:34 PM 60.3 °F 46.9 °F 61% 29.97 in 10.0 mi NNW 15.0 mph 20.7 mph N/A   Scattered Clouds
10:54 PM 60.1 °F 46.4 °F 61% 29.97 in 10.0 mi North 12.7 mph 25.3 mph N/A   Clear
11:14 PM 59.9 °F 47.5 °F 64% 29.97 in 10.0 mi NNW 12.7 mph 19.6 mph N/A   Clear
11:34 PM 60.3 °F 47.3 °F 62% 29.97 in 10.0 mi NNW 13.8 mph - N/A   Clear
11:54 PM 59.9 °F 47.8 °F 64% 29.98 in 10.0 mi North 16.1 mph 20.7 mph N/A   Clear